www.pogodaiklimat.ru

Погода и климат >> Архив погоды >> Россия >> Архангельская область >> Малые Кармакулы


АРХИВ ПОГОДЫ в Малых Кармакулах

Время (UTC), дата Ветер
(напр.,м/с)
 
Видим.   Явления Облачность Т
(С)
Тd
(С)
f
(%)
Тe
(С)
Тes
(С)
Комфортность P
(гПа)
Po
(гПа)
Тmin
(С)
Tmax
(С)
R
(мм)
R24
(мм)
S
(см)
09 11.02 В 20
{25}
4000 м слаб. ливневой снег {метель} 10/8 450 м
[Cb cap Ac und]
-9.8 -10.6 94 -24 -24 993.5 991.7
12 11.02 В 21
{27}
2000 м слаб. ливневой снег {метель} 10/6 480 м
[Cb cap Ac und]
-10.3 -10.9 95 -25 -25 994.3 992.5
15 11.02 В 17
{23}
4000 м метель {ливн. осадки} 10/4 300 м
[Cu hum Ac und]
-10.2 -10.8 95 -23 -23 994.7 992.9 -9.1 1
18 11.02 ЮВ 15
{20}
4000 м слаб. ливневой снег {метель} 10/3 300 м
[Cb cap Ac und]
-10.7 -11.3 95 -23 -23 994.8 993.0
21 11.02 В 13
{19}
4000 м слаб. ливневой снег {метель} 10/6 450 м
[Cb cap Ac und]
-11.0 -11.6 95 -23 -23 994.8 993.0
00 12.02 В 13
{18}
4000 м слаб. ливневой снег {метель} 10/4 300 м
[Cb cap Ac und]
-11.6 -12.2 95 -24 -24 994.6 992.8
03 12.02 В 13
{19}
4000 м слаб. ливневой снег {метель} 10/4 300 м
[Cb cap Ac und]
-12.8 -13.4 95 -25 -25 994.8 993.0 -12.8 2
06 12.02 ЮВ 14
{20}
2000 м ливневой снег {метель} 10/4 300 м
[Cb cap Ac und]
-11.4 -12.0 95 -24 -24 993.6 991.8
09 12.02 ЮВ 10
{19}
10 км позёмок {ливн. осадки} 10/8 420 м
[Cu med, cong Ac und]
-6.2 -6.6 97 -16 -16 994.4 992.6
12 12.02 ЮВ 10
{16}
10 км позёмок {ливн. осадки} 10/8 540 м
[Sc Ac und]
-6.5 -7.0 96 -17 -17 995.0 993.2
15 12.02 ЮВ 9
{14}
4000 м слаб. ливневой снег {метель} 10/8 400 м
[Cb cap Ac und]
-5.2 -5.9 95 -15 -15 995.5 993.7 -5.0 1
18 12.02 ЮВ 11
{15}
10 км позёмок {ливн. осадки} 10/10 270 м
[Sc]
-7.5 -8.1 95 -18 -18 994.6 992.8
21 12.02 ЮВ 11
{15}
4000 м слаб. ливневой снег {метель} 10/4 300 м
[Cb cap Ac und]
-7.9 -8.5 95 -19 -19 993.9 992.1
00 13.02 В 11
{16}
4000 м слаб. ливневой снег {метель} 10/6 420 м
[Cb cap Ac und]
-9.5 -10.2 95 -21 -21 991.7 989.9
03 13.02 В 13
{16}
4000 м слаб. ливневой снег {метель} 10/8 450 м
[Cb cap Ac und]
-11.0 -11.6 95 -23 -23 990.8 989.0 -11.0 1
06 13.02 В 10
{15}
4000 м слаб. ливневой снег {метель} 10/6 480 м
[Cb cap Ac und]
-12.4 -13.0 95 -24 -24 991.1 989.3 -12.4
09 13.02 В 5
{13}
20 км в посл. час ливневой снег {метель} 10/4 300 м
[Cu hum Ac und]
-12.7 -13.3 95 -21 -21 992.4 990.6
12 13.02 штиль 0 4000 м слаб. снег 10/3 300 м
[Frnb As op]
-13.5 -14.1 95 -14 -14 995.1 993.3
15 13.02 В 1 20 км {снег} 8/0
[Ac trans Ci fib]
-16.7 -17.9 90 -19 -19 997.3 995.4 -11.0 0.9
18 13.02 ЮВ 1 20 км {снег} 6/0
[Ac trans Ci fib]
-18.3 -19.5 90 -21 -21 999.9 998.0
21 13.02 ЮВ 3 20 км 6/3 600 м
[Sc Ac trans Ci fib]
-16.8 -18.1 90 -24 -24 1002.3 1000.4
00 14.02 штиль 0 20 км 9/4 600 м
[Sc Ac trans]
-13.8 -15.1 90 -14 -14 1003.4 1001.6
03 14.02 ЮВ 3 20 км 8/4 300 м
[Cu Sc Ac trans]
-15.1 -16.4 90 -22 -22 1004.0 1002.2 -18.6
06 14.02 ЮВ 5 20 км 9/4 600 м
[Sc Ac trans Ci fib]
-13.7 -15.0 90 -22 -22 1004.3 1002.5
09 14.02 ЮВ 4 20 км 8/4 600 м
[Sc Ac trans]
-12.1 -14.1 85 -19 -19 1004.3 1002.5
12 14.02 ЮВ 5 20 км 9/6 700 м
[Sc Ac trans Ci fib]
-11.2 -14.0 80 -19 -19 1003.6 1001.8
15 14.02 ЮВ 9
{14}
10 км позёмок 10/6 720 м
[Sc Ac und]
-10.1 -11.4 90 -20 -20 1001.2 999.4 -10.1
18 14.02 Ю 9
{17}
10 км позёмок 6/3 600 м
[Sc Ac trans Ci fib]
-8.8 -9.5 95 -19 -19 998.2 996.4
21 14.02 Ю 12
{17}
10 км позёмок 9/4 300 м
[Cu med, cong Ac trans]
-6.5 -7.0 96 -17 -17 995.1 993.3
00 15.02 Ю 10
{18}
4000 м слаб. ливневой снег {метель} 10/6 400 м
[Cb cap Ac und]
-5.2 -5.5 98 -15 -15 992.5 990.7
03 15.02 Ю 10
{19}
4000 м слаб. снег 10/8 240 м
[Frnb As op]
-4.9 -5.2 98 -15 -15 991.0 989.2 -10.2 0.3
06 15.02 Ю 10
{18}
4000 м слаб. снег 10/6 270 м
[Frnb As op]
-5.5 -5.9 97 -15 -15 990.4 988.6
09 15.02 Ю 10
{17}
10 км позёмок {снег} 10/0
[Ac As]
-6.7 -7.5 94 -17 -17 989.9 988.1
12 15.02 Ю 10
{16}
10 км позёмок {снег} 10/0
[Ac und]
-6.5 -7.3 94 -17 -17 988.6 986.8
15 15.02 Ю 10
{15}
10 км позёмок 10/6 300 м
[Sc Ac As]
-6.5 -7.7 91 -17 -17 987.5 985.7 -4.9 0.5
18 15.02 ЮВ 10
{15}
4000 м слаб. снег {метель} 10/3 300 м
[Frnb As op]
-7.6 -8.1 96 -18 -18 986.3 984.5
21 15.02 ЮВ 9
{13}
4000 м слаб. снег {метель} 10/6 270 м
[Frnb As op]
-7.6 -8.1 96 -18 -18 985.8 984.0
00 16.02 ЮВ 3
{12}
4000 м слаб. снег {метель} 10/4 300 м
[Frnb As op]
-7.4 -8.0 95 -13 -13 985.9 984.1
03 16.02 штиль 0 20 км {снег} 9/0
[Ac trans]
-8.0 -8.6 95 -9 -9 986.9 985.1 -8.0 0.5
06 16.02 штиль 0 20 км {снег} 9/6 570 м
[Sc Ac trans]
-10.1 -10.7 95 -11 -11 988.7 986.9 -10.1
09 16.02 С 5 20 км 9/8 630 м
[Cu Sc Ac trans]
-7.5 -8.4 93 -15 -15 990.1 988.3
12 16.02 С 10
{16}
10 км позёмок {ливн. осадки} 9/8 630 м
[Cu Sc Ac trans]
-6.9 -8.1 91 -17 -17 990.8 989.0
15 16.02 С 7
{14}
4000 м слаб. ливневой снег {метель} 10/6 450 м
[Cb cap Ac und]
-7.9 -9.3 90 -17 -17 991.4 989.6 -6.9 0.2
18 16.02 В 5 20 км {ливн. осадки, метель} 8/6 600 м
[Cu Sc Ac trans]
-10.9 -12.2 90 -19 -19 991.7 989.9
21 16.02 В 5 20 км 10/8 630 м
[Sc Ac und]
-11.9 -13.2 90 -20 -20 991.7 989.9
00 17.02 ЮВ 7 10 км позёмок {ливн. осадки} 10/8 600 м
[Cu Sc Ac und]
-11.9 -13.9 85 -21 -21 991.5 989.7
03 17.02 В 8
{10}
10 км позёмок 10/8 630 м
[Cu Sc Ac und]
-12.7 -14.7 85 -23 -23 991.5 989.7 -12.5 0.2
06 17.02 В 6
{10}
20 км {метель} 9/3 600 м
[Sc Ac trans Ci fib]
-14.4 -16.4 85 -24 -24 991.5 989.7 -14.4
09 17.02 ЮВ 7
{10}
20 км 9/0
[Ac trans Ci fib]
-14.9 -16.9 85 -25 -25 992.0 990.2
12 17.02 В 5 20 км 8/0
[Ac trans Ci fib]
-15.5 -17.4 85 -24 -24 992.5 990.6
15 17.02 ЮВ 5 10 км слаб. ливневой снег 9/3 300 м
[Cb cap Ac trans]
-15.5 -17.4 85 -24 -24 992.6 990.7 -12.7 0.0
18 17.02 Ю 1 20 км {ливн. осадки} 8/3 300 м
[Cu hum Ac trans Ci fib]
-15.7 -17.0 90 -18 -18 992.7 990.8
21 17.02 СВ 3 10 км слаб. ливневой снег 8/3 300 м
[Cb cap Ac trans Ci fib]
-16.3 -17.6 90 -23 -23 993.3 991.4
00 18.02 СЗ 10
{13}
4000 м слаб. ливневой снег {метель} 9/4 300 м
[Cb cap Ac trans]
-15.1 -16.4 90 -27 -27 994.2 992.4
03 18.02 С 9
{15}
4000 м слаб. ливневой снег {метель} 10/4 300 м
[Cb cap Ac und]
-15.7 -17.0 90 -27 -27 994.8 992.9 -17.2 0.4
06 18.02 С 9
{13}
4000 м слаб. ливневой снег {метель} 10/6 480 м
[Cb cap Ac und]
-16.1 -17.4 90 -28 -28 995.4 993.5

 

Местоположение метеостанции Малые Кармакулы (Архангельская область, Россия): широта 72.36 долгота 52.71 высота над уровнем моря 14 м.

В архиве по умолчанию представлена погода в Малых Кармакулах за последнюю неделю. Архивные данные за месяц целиком и за предыдущие месяцы, начиная с января 2011 года, Вы можете получить, выбрав интересующий диапазон дат из раскрывающегося списка и нажав кнопку "Ввод!".


*Определитесь, кто Вы:
робот инопланетянин человек

Внимание! Время в таблицах - всемирное. Для получения местного времени необходимо прибавить поправку, которая равна 3 ч.

Смотрите также архив погоды в соседних городах и на ближайших метеорологических станциях:

Погода в Имени Федорова (Ненецкий АО, Россия) (310 км)
Погода на Колгуевом Острове (Ненецкий АО, Россия) (341 км)
Погода в Ходоварихе (Ненецкий АО, Россия) (383 км)
Погода на Мысе Белый Нос (Ненецкий АО, Россия) (409 км)
Погода в Бугрино (Ненецкий АО, Россия) (415 км)
Погода в Амдерме (Ненецкий АО, Россия) (433 км)
Погода в Сенгейском Шаре (Ненецкий АО, Россия) (435 км)
Погода на Мысе Константиновском (Ненецкий АО, Россия) (436 км)
Погода в Варандее (Ненецкий АО, Россия) (440 км)
Погода в Нарьян-Маре (Ненецкий АО, Россия) (526 км)

Пояснения к столбцам:

Ветер - указаны скорость ветра в м/с - средняя за 10 мин, порывы в срок и между сроками (в фигурных скобках) и направление, откуда дует ветер: С - северный, СВ - северо-восточный, В - восточный, ЮВ - юго-восточный, Ю - южный, ЮЗ - юго-западный, З - западный, СЗ - северо-западный.
Видимость - горизонтальная дальность видимости в метрах или километрах. При видимости от 1 до 10 км при отсутствии осадков обычно наблюдается дымка, при ухудшении видимости до 1 км и менее - туман. В сухую погоду видимость может ухудшаться дымом, пылью или мглою.
Явления - указаны атмосферные явления, наблюдавшиеся в срок или в последний час перед сроком; фигурными скобками обозначены явления, наблюдавшиеся между сроками (за 1-3 часа до срока); квадратными скобками обозначены град или гололедные отложения с указанием их диаметра в мм.
Облачность - указаны через наклонную черту общая и нижняя облачность в баллах и высота нижней границы облаков в метрах; квадратными скобками обозначены формы облаков: Ci - перистые, Cs - перисто-слоистые, Cc - перисто-кучевые, Ac - высококучевые, As - высокослоистые, Sc - слоисто-кучевые, Ns - слоисто-дождевые, Cu - кучевые, Cb - кучево-дождевые. Подробнее классификацию облаков см. в Атласе облаков (PDF).
T - Температура воздуха - температура, измеренная на высоте 2 м над землей.
Td - Температура точки росы - температура, при понижении до которой содержащийся в воздухе водяной пар достигнет насыщения.
f - Относительная влажность воздуха - влажноcть воздуха, измеренная на высоте 2 м над землей.
Te - Эффективная температура - температура, которую ощущает одетый по сезону человек в тени. Характеристика душности погоды. При расчете учитывается влияние влажности воздуха и скорости ветра на теплоощущения человека.
Tes - Эффективная температура на солнце - температура, которую ощущает человек, с поправкой на солнечный нагрев. Характеристика знойности погоды. Зависит от высоты солнца над горизонтом, облачности и скорости ветра. Ночью, в пасмурную погоду, а также при ветре 12 м/с и более поправка равна нулю.
P - Атмосферное давление - приведенное к уровню моря атмосферное давление.
Po - Атмосферное давление - измеренное на уровне метеостанции атмосферное давление.
Tmin - Минимальная температура - минимум температуры воздуха на высоте 2 м над землей.
Tmax - Максимальная температура - максимум температуры воздуха на высоте 2 м над землей.
R - Количество осадков - Количество выпавших осадков за период времени, мм. При наведении курсора мыши на число - период времени, за который выпало указанное количество осадков.
R24 - Количество осадков - Количество выпавших осадков за 24 часа, мм.
S - Снежный покров - Высота снежного покрова, см. При наведении курсора мыши на число - состояние снежного покрова и степень покрытия местности в баллах.